C258 EHSE-EHSE

Flight info

Callsign C258
Flight time 0h 2m
Altitude 1500
Route RW24/RW24
Aircraft C172/L-V/N

Departure

Time 2026-04-30 18:17
Airport Breda International Airport (EHSE)

Arrival

Time 2026-04-30 18:20
Airport Breda International Airport (EHSE)
Time Latitude Longitude Altitude Speed Heading
2026-04-30 17:44 51.55524 4.54993 33 ft 0 kts 37°
2026-04-30 18:02 51.55529 4.54995 34 ft 4 kts 350°
2026-04-30 18:02 51.55480 4.55005 33 ft 1 kts 163°
2026-04-30 18:03 51.55479 4.55005 33 ft 0 kts 162°
2026-04-30 18:13 51.55457 4.54993 33 ft 10 kts 253°
2026-04-30 18:14 51.55387 4.54783 34 ft 5 kts 159°
2026-04-30 18:15 51.55365 4.54838 33 ft 0 kts 70°
2026-04-30 18:16 51.55374 4.54874 32 ft 19 kts 68°
2026-04-30 18:16 51.55686 4.55954 270 ft 60 kts 70°
2026-04-30 18:17 51.55860 4.56636 473 ft 69 kts 71°
2026-04-30 18:17 51.56299 4.57000 709 ft 87 kts
2026-04-30 18:17 51.56891 4.55417 1059 ft 109 kts 238°
2026-04-30 18:18 51.56625 4.54068 1080 ft 136 kts 253°
2026-04-30 18:18 51.56349 4.52735 1318 ft 120 kts 229°
2026-04-30 18:18 51.55780 4.52010 1336 ft 87 kts 184°
2026-04-30 18:18 51.55284 4.51935 1017 ft 62 kts 125°
2026-04-30 18:19 51.55164 4.52560 741 ft 64 kts 96°
2026-04-30 18:19 51.55177 4.53295 439 ft 63 kts 86°
2026-04-30 18:19 51.55226 4.53940 260 ft 59 kts 81°
2026-04-30 18:19 51.55320 4.54613 96 ft 62 kts 73°
2026-04-30 18:20 51.55465 4.55200 31 ft 44 kts 65°
2026-04-30 18:20 51.55549 4.55514 27 ft 27 kts 66°
2026-04-30 18:20 51.55603 4.55566 26 ft 9 kts 310°
2026-04-30 18:20 51.55583 4.55447 27 ft 14 kts 246°
2026-04-30 18:21 51.55536 4.55271 28 ft 21 kts 246°
2026-04-30 18:21 51.55484 4.55083 30 ft 14 kts 246°
2026-04-30 18:21 51.55498 4.54998 33 ft 10 kts 342°
2026-04-30 18:21 51.55516 4.54993 33 ft 0 kts 358°